Tracking 30009 objects as of 7-Dec-2024
HD Live streaming from Space Station
objects crossing your sky now

COSMOS 626

Track COSMOS 626 now!
10-day predictions
COSMOS 626 is classified as:


NORAD ID: 7005
Int'l Code: 1973-108A
Perigee: 904.2 km
Apogee: 999.2 km
Inclination: 65.4 °
Period: 103.9 minutes
Semi major axis: 7322 km
RCS: 3.2756 m2 (large)
Launch date: December 27, 1973
Source: Commonwealth of Independent States (former USSR) (CIS)
Launch site: TYURATAM MISSILE AND SPACE COMPLEX (TTMTR)
Your satellite tracking list
Your tracking list is empty




NASA's NSSDC Master Catalog

Two Line Element Set (TLE):
1 07005U 73108A   24341.80012959  .00000000  00000-0  73811-4 0  9993
2 07005  65.4385  77.0911 0064819 288.7977  70.6063 13.85469851577434
Source of the keplerian elements: AFSPC